Location: S�deilles
(46.7500°N, 6.9329°E)
Time: 18:01:06
(UTC+00:00)

Lacrosse 4 Rocket - Pass Details

Date: 08 March 2021
Orbit: 537 x 620 km, 68.0° (Epoch: 19 April)

Event Time Altitude Azimuth Distance (km) Brightness Sun altitude
Rises 17:53:47 0° 189° (S) 2,823 5.1 -5.2°
Reaches altitude 10° 17:56:05 10° 182° (S) 1,938 4.2 -5.6°
Maximum altitude 18:00:10 39° 113° (ESE) 916 2.0 -6.3°
Drops below altitude 10° 18:04:20 10° 45° (NE) 1,986 3.8 -7.0°
Sets 18:06:43 0° 38° (NE) 2,901 4.6 -7.4°
